Home   Weather   Churchill   Past weeks

Flag for Canada Past Weather in Churchill, Manitoba, Canada — Yesterday and Last 2 Weeks

Now
25 °F

Light snow. Ice fog.


Feels Like: 8 °F
Forecast: 21 / 27 °F
Wind: 31 mph from North

Location: Churchill

Current Time: Dec 6, 2016 at 1:54:48 pm

Latest Report: Dec 6, 2016 at 1:00 pm


Visibility: 6 mi

Pressure: 29.99 "Hg

Humidity: 93%

Dew Point: 23 °F

Location of ChurchillLocation

Past Weather in Churchill — Graph

°F

Churchill Temperature Yesterday

Maximum temperature yesterday: 23 °F (at 6:00 am)
Minimum temperature yesterday: 19 °F (at 12:00 am)
Average temperature yesterday: 22 °F

High & Low Weather Summary for the Past Weeks

 TemperatureHumidityPressure
High32 °F (Nov 29, 12:00 am)100% (Nov 22, 9:00 pm)30.36 "Hg (Nov 22, 9:00 pm)
Low0 °F (Dec 2, 10:00 pm)73% (Nov 21, 8:00 pm)29.80 "Hg (Dec 4, 10:00 pm)
Average20 °F91%30.07 "Hg
* Reported Nov 21 11:00 am — Dec 6 11:00 am, Churchill, Weather by CustomWeather, © 2016

Note: Actual official high and low records may vary slightly from our data, if they occured in-between our weather recording intervals... More about our weather records

Advertising

Churchill Weather History for the Previous 24 Hours

Scroll right to see more
 ConditionsComfort  
Time TempWeatherWind HumidityBarometerVisibility
11:00 am
Tue, Dec 6
25 °FLight snow. Mostly cloudy.21 mph100%30.00 "Hg8 mi
10:00 am27 °FLight snow. Ice fog.20 mph93%29.99 "Hg1 mi
9:00 am25 °FLight snow. Broken clouds.20 mph100%30.00 "Hg3 mi
8:00 am25 °FLight snow. Partly cloudy.17 mph100%30.00 "Hg12 mi
7:00 am27 °FLight snow. Mostly cloudy.14 mph93%29.99 "Hg15 mi
6:00 am27 °FLight snow. Mostly cloudy.14 mph93%29.98 "Hg15 mi
5:00 am25 °FLight snow. Overcast.7 mph93%29.98 "Hg15 mi
4:00 am25 °FPassing clouds.6 mph93%29.98 "Hg15 mi
3:00 am25 °FPartly cloudy.8 mph100%29.98 "Hg15 mi
2:00 am21 °FLight snow. Passing clouds.6 mph100%29.98 "Hg15 mi
1:00 am23 °FLight snow. Overcast.8 mph100%29.97 "Hg15 mi
12:00 am23 °FOvercast.5 mph93%29.97 "Hg15 mi
11:00 pm
Mon, Dec 5
23 °FPartly cloudy.6 mph93%29.96 "Hg15 mi
10:00 pm21 °FPassing clouds.7 mph93%29.96 "Hg15 mi
9:00 pm21 °FLight snow. Overcast.7 mph93%29.96 "Hg15 mi
8:00 pm23 °FLight snow. Overcast.5 mph93%29.95 "Hg15 mi
7:00 pm23 °FLight snow. Overcast.7 mph93%29.94 "Hg15 mi
6:00 pm23 °FLight snow. Overcast.7 mph100%29.93 "Hg15 mi
5:00 pm23 °FLight snow. Mostly cloudy.8 mph93%29.92 "Hg15 mi
4:00 pm23 °FLight snow. Mostly cloudy.2 mph100%29.92 "Hg8 mi
3:00 pm23 °FLight snow. Mostly cloudy.No wind93%29.90 "Hg15 mi
2:00 pm23 °FLight snow. Partly sunny.2 mph93%29.89 "Hg15 mi
1:00 pm23 °FLight snow. Mostly cloudy.2 mph93%29.88 "Hg15 mi
Weather by CustomWeather, © 2016

See weather overviewHow to use our weather pages